Flag for Angola Weather past 2 weeks in Lubango, Angola

Now
72 °F

Clear.


Feels Like: 69 °F
Forecast: 45 / 74 °F
Wind: 5 mph from South

Location: Luanda Airport

Current Time: May 29, 2015 at 11:28:59 PM

Latest Report: May 29, 2015 at 11:00 PM


Visibility: 10 mi

Pressure: 29.92 "Hg

Humidity: 88%

Dew point: 68 °F

Location of LubangoLocation

Historic Weather in Lubango — Graph

°F

Lubango temperature yesterday

Maximum temperature yesterday: 81 °F (at 11:00 AM)
Minimum temperature yesterday: 72 °F (at 1:00 AM)
Average temperature yesterday: 75 °F

Past Weeks' High & Low Weather Summary

 TemperatureHumidityPressure
High90 °F (May 20, 2:00 PM)94% (May 16, 5:00 AM)30.15 "Hg (May 16, 5:00 AM)
Low61 °F (May 26, 6:00 AM)52% (May 27, 12:00 PM)29.77 "Hg (May 15, 4:00 PM)
Average80 °F77%29.90 "Hg
* Reported May 14 10:00 PM — May 29 10:00 PM, Lubango, Weather by CustomWeather, © 2015

Note: Actual official high and low records may vary slightly from our data, if they occured in-between our weather recording intervals... More about our weather records

Advertising

Lubango weather history for previous 24 hours

 ConditionsComfort  
Time TempWeatherWind HumidityBarometerVisibility
10:00 PM
Fri, May 29
73 °FClear.7 mph83%29.89 "Hg10 mi
9:00 PM73 °FClear.8 mph83%29.89 "Hg10 mi
8:00 PM73 °FClear.7 mph83%29.86 "Hg10 mi
7:00 PM75 °FClear.7 mph78%29.83 "Hg10 mi
6:00 PM75 °FClear.9 mph78%29.83 "Hg10 mi
5:00 PM77 °FSunny.9 mph69%29.83 "Hg10 mi
4:00 PM79 °FSunny.8 mph61%29.83 "Hg10 mi
3:00 PM81 °FSunny.9 mph62%29.83 "Hg10 mi
2:00 PM77 °FPassing clouds.9 mph74%29.86 "HgN/A
1:00 PM81 °FSunny.9 mph66%29.89 "Hg10 mi
12:00 PM81 °FPassing clouds.8 mph66%29.89 "HgN/A
11:00 AM81 °FPassing clouds.5 mph66%29.95 "HgN/A
10:00 AM81 °FScattered clouds.3 mph62%29.95 "HgN/A
9:00 AM77 °FPartly sunny.3 mph69%29.95 "HgN/A
8:00 AM75 °FPartly sunny.3 mph78%29.92 "Hg5 mi
7:00 AM72 °FFog.2 mph83%29.92 "Hg3 mi
6:00 AM72 °FPartly cloudy.3 mph83%29.89 "Hg4 mi
5:00 AM73 °FPassing clouds.3 mph78%29.89 "HgN/A
4:00 AM73 °FPassing clouds.3 mph78%29.89 "HgN/A
3:00 AM75 °FPassing clouds.3 mph78%29.89 "HgN/A
2:00 AM73 °FMild.5 mph83%29.89 "HgN/A
1:00 AM73 °FPassing clouds.5 mph83%29.92 "HgN/A
12:00 AM75 °FPassing clouds.6 mph78%29.92 "HgN/A
11:00 PM
Thu, May 28
73 °FPassing clouds.5 mph83%29.92 "HgN/A
Weather by CustomWeather, © 2015

See weather overviewHow to use our weather pages